When you browse on this site, cookies collect data to enhance your experience and personalize the content and advertising you see.
Visit our Privacy Policy to learn more. By continuing to use the site, you agree to this use of cookies and data.
  • In Latvia
  • List of Countries
  • For 7 days
  • Water Temperature
  • Weather Map
  • Weather Widgets
  • user-avatar
    Login

    Hourly Weather Ghazni

    Today, 23 January, Thursday

    Time Temperature Precipitation Wind Pressure Humidity
    00:00 -14°C° 0 mm 2 mps 584 mmHg 65%
    01:00 -14°C° 0 mm 2 mps 584 mmHg 64%
    02:00 -14°C° 0 mm 2 mps 583 mmHg 62%
    03:00 -15°C° 0 mm 2 mps 583 mmHg 62%
    04:00 -15°C° 0 mm 2 mps 583 mmHg 61%
    05:00 -15°C° 0 mm 2 mps 582 mmHg 62%
    06:00 -13°C° 0 mm 1 mps 582 mmHg 61%
    07:00 -13°C° 0 mm 1 mps 583 mmHg 60%
    08:00 -13°C° 0 mm 1 mps 583 mmHg 58%
    09:00 -11°C° 0 mm 1 mps 583 mmHg 61%
    10:00 -10°C° 0 mm 2 mps 584 mmHg 63%
    11:00 -8°C° 0 mm 2 mps 585 mmHg 65%
    12:00 -6°C° 0 mm 1 mps 584 mmHg 65%
    13:00 -4°C° 0 mm 1 mps 584 mmHg 65%
    14:00 -3°C° 0 mm 1 mps 583 mmHg 65%
    15:00 -4°C° 0 mm 1 mps 583 mmHg 67%
    16:00 -6°C° 0 mm 0 mps 582 mmHg 70%
    17:00 -7°C° 0 mm 0 mps 581 mmHg 72%
    18:00 -8°C° 0 mm 0 mps 581 mmHg 70%
    19:00 -9°C° 0 mm 0 mps 581 mmHg 68%
    20:00 -10°C° 0 mm 0 mps 581 mmHg 66%
    21:00 -10°C° 0 mm 0 mps 581 mmHg 65%
    22:00 -10°C° 0 mm 0 mps 582 mmHg 65%
    23:00 -10°C° 0 mm 0 mps 582 mmHg 64%

    Tomorrow, 24 January, Friday

    Time Temperature Precipitation Wind Pressure Humidity
    00:00 -10°C° 0 mm 1 mps 582 mmHg 65%
    01:00 -10°C° 0 mm 1 mps 581 mmHg 65%
    02:00 -10°C° 0 mm 1 mps 581 mmHg 66%
    03:00 -10°C° 0 mm 1 mps 581 mmHg 65%
    04:00 -10°C° 0 mm 1 mps 580 mmHg 65%
    05:00 -10°C° 0 mm 1 mps 580 mmHg 64%
    06:00 -10°C° 0 mm 1 mps 580 mmHg 64%
    07:00 -10°C° 0 mm 1 mps 580 mmHg 65%
    08:00 -9°C° 0 mm 1 mps 580 mmHg 65%
    09:00 -7°C° 0.1 mm 1 mps 581 mmHg 67%
    10:00 -6°C° 0.1 mm 1 mps 581 mmHg 68%
    11:00 -3°C° 0.1 mm 1 mps 582 mmHg 70%
    12:00 -2°C° 0.2 mm 1 mps 581 mmHg 77%
    13:00 -2°C° 0.2 mm 1 mps 581 mmHg 85%
    14:00 -1°C° 0.2 mm 1 mps 580 mmHg 92%
    15:00 -2°C° 0 mm 1 mps 580 mmHg 93%
    16:00 -2°C° 0 mm 1 mps 580 mmHg 93%
    17:00 -2°C° 0 mm 1 mps 579 mmHg 94%
    18:00 -3°C° 0 mm 1 mps 579 mmHg 93%
    19:00 -3°C° 0 mm 1 mps 580 mmHg 92%
    20:00 -4°C° 0 mm 1 mps 580 mmHg 92%
    21:00 -4°C° 0 mm 1 mps 580 mmHg 92%
    22:00 -6°C° 0 mm 1 mps 580 mmHg 91%
    23:00 -6°C° 0 mm 1 mps 580 mmHg 91%

    Day after tomorrow, 25 January, Saturday

    Time Temperature Precipitation Wind Pressure Humidity
    00:00 -6°C° 0 mm 1 mps 580 mmHg 90%
    01:00 -6°C° 0 mm 1 mps 580 mmHg 89%
    02:00 -4°C° 0 mm 1 mps 581 mmHg 88%
    03:00 -6°C° 0 mm 1 mps 581 mmHg 86%
    04:00 -6°C° 0 mm 1 mps 580 mmHg 84%
    05:00 -7°C° 0 mm 1 mps 580 mmHg 83%
    06:00 -7°C° 0 mm 1 mps 581 mmHg 80%
    07:00 -8°C° 0 mm 1 mps 581 mmHg 77%
    08:00 -8°C° 0 mm 1 mps 581 mmHg 74%
    09:00 -7°C° 0 mm 1 mps 582 mmHg 72%
    10:00 -4°C° 0 mm 1 mps 582 mmHg 71%
    11:00 -3°C° 0 mm 1 mps 583 mmHg 69%
    12:00 -2°C° 0 mm 1 mps 583 mmHg 70%
    13:00 -1°C° 0 mm 1 mps 582 mmHg 71%
    14:00 -2°C° 0 mm 0 mps 582 mmHg 72%
    15:00 -3°C° 0 mm 0 mps 581 mmHg 74%
    16:00 -4°C° 0 mm 0 mps 580 mmHg 76%
    17:00 -6°C° 0 mm 0 mps 580 mmHg 78%
    18:00 -7°C° 0 mm 1 mps 580 mmHg 74%
    19:00 -7°C° 0 mm 1 mps 580 mmHg 70%
    20:00 -8°C° 0 mm 1 mps 581 mmHg 66%
    21:00 -9°C° 0 mm 1 mps 581 mmHg 63%
    22:00 -10°C° 0 mm 2 mps 581 mmHg 59%
    23:00 -12°C° 0 mm 2 mps 581 mmHg 55%

    26 January, Sunday

    Time Temperature Precipitation Wind Pressure Humidity
    00:00 -12°C° 0 mm 2 mps 580 mmHg 54%
    01:00 -13°C° 0 mm 2 mps 580 mmHg 53%
    02:00 -11°C° 0 mm 1 mps 579 mmHg 51%
    03:00 -13°C° 0 mm 2 mps 579 mmHg 50%
    04:00 -13°C° 0 mm 2 mps 579 mmHg 48%
    05:00 -14°C° 0 mm 2 mps 579 mmHg 47%
    06:00 -14°C° 0 mm 2 mps 579 mmHg 45%
    07:00 -14°C° 0 mm 2 mps 579 mmHg 43%
    08:00 -14°C° 0 mm 2 mps 579 mmHg 42%
    09:00 -10°C° 0 mm 1 mps 580 mmHg 44%
    10:00 -8°C° 0 mm 1 mps 581 mmHg 47%
    11:00 -6°C° 0 mm 0 mps 581 mmHg 49%
    12:00 -5°C° 0 mm 0 mps 581 mmHg 51%
    13:00 -3°C° 0 mm 1 mps 580 mmHg 53%
    14:00 -3°C° 0 mm 1 mps 579 mmHg 55%
    15:00 -5°C° 0 mm 0 mps 579 mmHg 58%
    16:00 -6°C° 0 mm 0 mps 578 mmHg 61%
    17:00 -7°C° 0 mm 0 mps 577 mmHg 64%
    18:00 -8°C° 0 mm 1 mps 578 mmHg 61%
    19:00 -9°C° 0 mm 2 mps 578 mmHg 58%
    20:00 -10°C° 0 mm 2 mps 578 mmHg 55%
    21:00 -9°C° 0 mm 2 mps 578 mmHg 56%
    22:00 -9°C° 0 mm 2 mps 579 mmHg 57%
    23:00 -7°C° 0 mm 1 mps 579 mmHg 57%

    27 January, Monday

    Time Temperature Precipitation Wind Pressure Humidity
    00:00 -9°C° 0 mm 2 mps 579 mmHg 57%
    01:00 -9°C° 0 mm 2 mps 578 mmHg 56%
    02:00 -10°C° 0 mm 3 mps 578 mmHg 55%
    03:00 -10°C° 0 mm 3 mps 578 mmHg 55%
    04:00 -9°C° 0 mm 2 mps 578 mmHg 56%
    05:00 -10°C° 0 mm 2 mps 578 mmHg 56%
    06:00 -10°C° 0 mm 2 mps 578 mmHg 57%
    07:00 -10°C° 0 mm 2 mps 578 mmHg 58%
    08:00 -10°C° 0 mm 2 mps 578 mmHg 60%
    09:00 -8°C° 0 mm 2 mps 579 mmHg 61%
    10:00 -6°C° 0 mm 2 mps 579 mmHg 62%
    11:00 -3°C° 0 mm 1 mps 580 mmHg 63%
    12:00 -2°C° 0 mm 1 mps 580 mmHg 65%
    13:00 -2°C° 0 mm 1 mps 579 mmHg 67%
    14:00 -1°C° 0 mm 1 mps 579 mmHg 69%
    15:00 -2°C° 0 mm 1 mps 578 mmHg 72%
    16:00 -3°C° 0 mm 1 mps 578 mmHg 75%
    17:00 -4°C° 0 mm 1 mps 577 mmHg 77%
    18:00 -6°C° 0 mm 1 mps 578 mmHg 75%
    19:00 -7°C° 0 mm 1 mps 578 mmHg 73%
    20:00 -8°C° 0 mm 1 mps 578 mmHg 71%
    21:00 -10°C° 0 mm 2 mps 578 mmHg 69%
    22:00 -10°C° 0 mm 2 mps 578 mmHg 67%
    23:00 -12°C° 0 mm 2 mps 579 mmHg 66%

    28 January, Tuesday

    Time Temperature Precipitation Wind Pressure Humidity
    00:00 -12°C° 0 mm 2 mps 578 mmHg 63%
    01:00 -12°C° 0 mm 2 mps 578 mmHg 61%
    02:00 -13°C° 0 mm 2 mps 578 mmHg 58%
    03:00 -13°C° 0 mm 2 mps 578 mmHg 57%
    04:00 -14°C° 0 mm 2 mps 578 mmHg 55%
    05:00 -14°C° 0 mm 2 mps 577 mmHg 53%
    06:00 -15°C° 0 mm 2 mps 578 mmHg 52%
    07:00 -15°C° 0 mm 2 mps 578 mmHg 51%
    08:00 -15°C° 0 mm 2 mps 578 mmHg 51%
    09:00 -13°C° 0 mm 2 mps 579 mmHg 54%
    10:00 -10°C° 0 mm 2 mps 579 mmHg 57%
    11:00 -7°C° 0 mm 1 mps 580 mmHg 60%
    12:00 -7°C° 0 mm 1 mps 579 mmHg 61%
    13:00 -6°C° 0 mm 1 mps 579 mmHg 61%
    14:00 -4°C° 0 mm 1 mps 579 mmHg 62%
    15:00 -6°C° 0 mm 1 mps 578 mmHg 64%
    16:00 -7°C° 0 mm 1 mps 578 mmHg 66%
    17:00 -8°C° 0 mm 1 mps 578 mmHg 68%
    18:00 -10°C° 0 mm 1 mps 578 mmHg 66%
    19:00 -13°C° 0 mm 2 mps 578 mmHg 64%
    20:00 -14°C° 0 mm 2 mps 578 mmHg 62%
    21:00 -15°C° 0 mm 2 mps 578 mmHg 62%
    22:00 -15°C° 0 mm 2 mps 579 mmHg 61%
    23:00 -16°C° 0 mm 2 mps 579 mmHg 61%
    Show more